Location: *
(33.3200°N, 8.3381°W)
Time: 19:38:58
(UTC+00:00)

Cosmos 2218 Rocket - Pass Details

Date: 09 April 2020
Orbit: 957 x 1005 km, 82.9° (Epoch: 27 May)

Event Time Altitude Azimuth Distance (km) Brightness Sun altitude
Rises 20:58:34 0° 360° (N) 3,668 7.4 -24.2°
Reaches altitude 10° 21:01:10 10° 5° (N) 2,725 6.6 -24.6°
Enters shadow 21:07:05 52° 76° (ENE) 1,207 4.1 -25.7°
